Theta_e
330 332 331 331 333 331 327 323 321 322 322 320 321 322 321 321 324 327 329 329 326 322 323 328 329 329 329 328 327 326 327 329 329 328 329 328 327 326 325 324 324 323 322 321 319 318 317 316 315 315 314 313 312 311 310 309 308 307 307 306 305 305 305 305 305 306 306 306 307 307 307 308 308 309 309 309 308 309 308 308 309 308 308 308 308
330 332 331 331 331 327 324 324 326 326 324 323 321 322 322 323 325 327 328 328 328 327 326 329 331 330 329 328 328 328 328 328 328 328 329 328 327 326 326 325 324 323 321 320 319 318 317 317 316 315 314 313 312 312 311 310 309 308 307 306 305 305 305 305 305 305 305 306 306 306 307 307 307 308 307 308 308 308 308 308 308 308 308 308 308
330 331 331 332 330 326 325 326 328 329 328 328 327 328 328 326 327 328 328 329 329 329 330 330 331 330 330 329 329 329 328 328 327 327 329 329 327 327 326 326 325 323 321 320 319 318 318 317 317 316 315 313 312 311 311 310 309 308 306 305 305 305 305 305 305 305 305 305 305 305 305 306 306 307 307 307 308 308 308 308 308 309 309 309 308
329 330 331 331 329 327 329 328 330 331 331 330 330 332 331 328 329 329 329 330 330 331 331 330 330 330 330 329 329 330 329 328 327 326 328 328 327 327 326 326 325 323 320 320 320 319 319 318 317 317 316 313 311 310 309 309 308 307 306 305 305 305 305 305 305 304 304 304 304 304 305 305 306 306 307 308 308 308 309 309 309 309 309 308 308
330 330 331 329 328 329 331 331 331 332 332 332 332 332 330 330 332 330 329 331 331 331 330 330 330 330 330 330 329 329 329 328 326 325 327 327 325 325 325 325 324 322 320 320 320 320 322 322 318 316 315 312 309 308 307 307 307 306 306 305 305 305 304 304 304 303 303 303 303 304 305 305 306 307 308 309 309 309 309 309 309 309 309 309 308
330 331 330 328 329 330 332 333 332 332 332 331 332 331 328 330 332 330 330 331 331 330 330 330 331 330 330 329 329 329 328 327 326 326 326 325 325 325 325 325 324 322 321 320 320 322 325 327 323 315 313 311 309 309 308 307 307 307 306 306 306 305 305 304 303 303 303 303 304 305 306 307 308 308 309 309 309 310 309 309 308 308 309 309 309
330 331 330 329 330 329 331 332 331 332 331 330 331 329 327 328 329 329 330 329 330 330 330 331 330 330 329 329 329 329 328 326 325 326 326 326 326 326 326 326 325 324 322 321 323 324 326 329 324 317 315 315 314 314 313 313 313 312 313 312 312 311 310 308 307 306 306 306 307 307 308 308 309 309 309 310 310 309 309 308 309 309 310 310 310
330 331 330 330 331 330 330 331 330 331 330 329 330 329 329 328 327 330 330 329 330 331 330 330 330 330 329 329 329 329 329 327 327 326 327 327 327 327 327 327 326 325 324 323 325 326 327 328 324 320 321 321 321 321 320 320 320 320 320 320 320 319 318 316 314 312 311 310 310 310 310 309 309 310 310 310 310 309 308 309 309 310 311 312 313
331 331 330 330 331 330 329 329 329 331 330 328 329 328 328 328 328 331 331 330 331 331 330 330 330 330 329 329 330 330 329 329 329 328 328 327 327 327 327 327 327 327 325 324 325 326 326 327 324 322 324 324 325 325 324 323 323 323 323 323 323 322 322 321 320 318 315 314 312 312 311 311 312 311 311 310 309 308 308 308 310 311 314 316 317
331 331 331 331 331 328 327 328 328 330 330 328 327 326 327 328 329 331 330 330 331 331 331 330 330 330 330 330 329 330 330 329 329 329 328 328 327 327 327 327 327 328 326 323 323 325 325 326 326 325 325 326 327 327 326 326 325 324 324 324 324 323 323 323 322 321 319 317 315 314 314 314 314 313 311 310 308 308 308 310 314 318 320 322 322
331 331 331 330 330 328 327 327 328 329 329 329 327 326 328 329 330 330 330 331 332 331 331 330 331 330 329 328 328 329 328 328 328 328 328 328 327 327 327 327 327 327 327 323 321 323 325 326 327 326 326 326 327 328 328 328 327 327 326 326 325 324 324 323 323 322 322 320 319 317 317 317 317 316 313 310 309 308 309 315 321 323 323 323 323
330 331 330 329 329 328 326 325 327 327 326 328 328 327 328 329 330 331 331 331 331 331 330 330 330 330 328 328 328 328 327 326 326 327 328 327 327 326 326 327 327 327 326 324 321 322 325 326 326 326 326 326 326 326 327 327 327 328 328 327 327 326 326 326 324 323 322 322 321 321 320 320 320 319 316 312 310 311 315 320 323 324 323 323 323
331 330 329 328 327 327 327 327 327 327 326 327 328 327 329 331 332 332 330 330 331 331 331 330 330 329 328 328 328 327 327 326 326 328 328 327 326 326 326 326 327 327 326 326 324 323 323 324 324 325 325 326 326 325 325 325 326 327 327 327 328 327 327 327 326 324 323 322 322 322 322 322 322 322 319 317 316 317 320 323 324 324 323 322 322
331 330 329 327 326 326 327 329 328 328 327 327 328 328 330 332 330 329 329 329 330 331 331 330 329 328 328 328 328 328 327 327 326 327 327 327 327 326 326 326 326 326 326 326 326 325 324 321 321 323 324 325 324 324 324 324 325 325 326 326 327 327 327 327 327 326 325 324 323 323 323 323 322 323 323 321 321 321 322 323 324 324 323 322 322
330 329 329 328 326 326 327 329 329 328 327 327 328 329 331 331 329 327 328 329 330 330 330 329 329 328 327 327 327 328 328 327 326 326 326 327 327 326 325 325 325 325 325 326 326 326 325 321 320 320 322 323 323 323 324 324 324 323 324 325 326 327 327 326 327 327 326 325 325 324 323 323 323 324 324 323 322 322 323 323 323 323 323 323 323
330 329 328 328 327 326 326 329 328 328 328 328 328 330 331 330 329 329 328 328 330 331 330 329 329 328 327 327 327 327 328 327 326 327 327 327 327 326 326 325 325 324 325 325 325 326 325 324 322 321 322 323 324 324 324 323 323 322 322 324 325 327 326 326 327 327 326 326 326 324 323 324 324 324 325 324 322 322 323 323 323 324 323 322 320
329 328 328 328 328 327 327 329 328 328 329 328 329 330 330 329 329 330 328 327 328 330 330 329 329 328 327 327 327 327 328 327 327 327 326 326 326 327 327 326 325 325 325 325 325 326 326 325 324 324 324 325 325 324 323 323 322 322 321 322 324 326 327 327 327 326 325 325 324 322 322 324 324 324 324 323 323 323 323 323 324 323 319 314 311
328 328 328 328 328 328 329 329 328 328 328 328 330 329 329 329 329 329 328 327 328 329 329 329 330 329 327 327 327 327 327 327 326 327 327 326 326 326 326 326 325 325 325 326 326 326 325 325 325 325 325 325 325 324 324 323 322 321 321 322 323 325 326 326 326 325 324 321 319 317 319 322 323 323 323 322 322 322 322 321 318 314 309 307 306
328 327 327 328 328 328 330 329 328 328 328 329 329 328 328 327 328 328 328 328 329 329 329 329 329 329 328 327 326 327 327 326 326 327 327 326 326 326 326 326 325 326 326 326 326 326 325 325 325 325 325 325 325 325 324 322 321 321 321 321 322 323 324 324 322 320 318 316 314 313 313 316 319 320 320 320 318 316 314 312 309 307 306 306 306
328 328 328 329 329 329 329 329 329 328 327 328 328 327 327 326 328 329 328 329 330 329 329 328 328 328 328 327 327 328 328 326 325 325 325 326 326 326 326 327 326 326 327 326 326 326 326 326 325 325 325 325 325 324 323 322 321 320 320 319 316 315 316 315 313 311 309 308 309 308 307 309 312 313 312 311 310 308 307 306 306 307 307 308 308
329 330 330 330 330 329 328 329 329 328 327 328 328 327 326 327 327 328 329 330 330 329 329 328 328 328 328 328 328 328 327 326 326 325 324 325 326 326 326 327 327 327 327 326 326 326 326 326 325 325 325 325 325 323 322 321 320 319 319 316 310 307 308 308 307 307 307 307 308 308 307 308 308 308 308 307 307 307 307 308 308 308 308 308 307
331 331 330 329 329 328 328 329 329 328 328 329 328 328 328 328 327 328 329 330 330 330 329 327 328 328 328 327 327 327 326 326 326 326 324 324 325 325 326 326 326 326 326 326 326 326 326 325 325 325 325 324 324 323 321 320 317 314 312 310 307 307 308 308 309 309 309 309 309 309 309 309 308 308 308 308 308 308 308 308 308 307 307 306 304
330 330 329 328 327 328 329 329 330 329 328 328 328 328 329 328 329 329 328 329 330 330 329 328 327 327 327 327 326 325 325 325 326 326 325 324 325 325 325 326 326 326 326 326 326 325 325 325 324 324 324 324 322 321 321 318 312 308 307 307 308 309 309 309 309 309 309 309 308 308 308 309 309 309 308 308 308 308 307 307 306 304 303 302 301
329 330 329 328 327 328 330 330 330 329 329 329 329 329 329 328 329 329 328 329 329 329 329 329 327 327 327 327 326 326 325 326 326 326 326 325 324 325 326 326 325 325 325 325 325 325 323 322 322 322 322 323 322 321 320 316 309 306 307 308 309 309 309 309 309 308 307 307 306 306 306 306 306 306 306 306 305 305 304 303 302 302 301 301 301
330 330 329 328 327 329 330 329 329 329 329 330 330 330 329 328 329 329 328 329 329 329 329 329 328 328 328 327 327 327 326 326 326 326 326 326 325 326 326 325 325 325 325 325 324 324 322 321 320 320 321 322 322 320 318 313 308 307 308 309 309 309 309 309 308 307 306 305 304 303 303 303 303 302 302 302 302 302 301 301 301 301 301 301 301
330 329 328 327 327 328 328 328 328 328 329 329 330 330 329 328 328 327 327 327 327 328 328 329 329 328 328 327 327 328 327 327 327 326 327 326 325 326 325 324 324 324 325 324 323 323 321 320 320 320 320 321 321 319 316 311 308 308 309 309 309 309 309 308 307 305 304 303 302 302 302 301 301 301 301 301 301 301 301 301 302 302 302 302 302
329 329 328 327 326 327 327 326 327 327 328 329 329 330 329 328 327 326 325 326 327 327 328 329 329 328 328 327 327 328 327 327 326 327 327 327 326 325 324 323 323 324 324 324 323 323 322 320 319 319 319 320 320 318 313 309 308 309 309 308 309 309 308 307 305 304 303 302 302 302 302 301 301 301 301 301 302 302 302 302 302 302 302 302 302
329 329 328 327 326 326 326 326 327 326 327 328 329 329 329 328 326 325 325 326 326 326 327 328 328 327 327 327 327 328 327 326 326 326 327 326 326 325 323 321 322 323 324 324 323 323 322 319 317 318 319 319 318 315 311 309 309 309 308 308 308 308 307 306 304 304 303 303 304 303 303 303 303 303 303 302 302 302 302 302 302 302 302 302 302
329 329 329 328 325 324 324 324 325 325 326 328 329 328 328 327 325 324 324 325 325 325 326 327 326 327 327 326 327 327 326 326 326 327 327 327 326 324 322 321 320 321 323 323 323 322 321 319 316 317 319 319 317 314 310 309 309 308 308 308 307 307 307 306 305 305 305 306 306 306 306 306 306 305 305 305 304 303 303 302 302 302 302 302 302
329 329 329 327 325 323 321 322 323 324 325 327 328 328 328 327 326 325 325 325 325 325 326 326 326 327 327 326 326 327 326 326 326 327 327 326 325 322 321 321 320 319 320 321 321 320 320 319 316 315 316 318 319 314 309 309 309 308 308 307 306 307 308 307 306 306 307 308 309 308 308 308 308 307 307 307 306 305 304 303 303 302 302 302 303
328 328 328 326 324 322 321 322 322 323 324 325 326 327 327 326 326 325 325 325 326 326 326 325 325 327 326 326 326 327 327 327 326 326 326 326 324 322 321 320 320 320 319 319 319 319 319 318 316 316 314 315 318 315 309 309 309 308 307 306 307 309 309 308 308 308 309 309 309 309 309 309 309 309 308 308 308 307 306 305 304 303 303 303 303
327 327 327 325 325 323 322 321 319 321 323 322 322 324 323 324 325 325 325 325 325 326 326 325 326 326 326 326 326 327 327 327 326 326 326 326 325 323 322 321 320 320 320 319 319 318 319 318 317 316 313 312 316 315 311 310 310 307 306 307 309 310 309 309 309 309 309 310 310 310 309 309 309 309 310 309 309 309 308 307 306 305 305 304 304
327 327 326 326 325 324 323 320 318 320 321 320 320 320 320 322 325 325 325 325 325 326 326 326 326 326 326 327 326 326 327 327 327 327 327 326 326 325 323 321 321 321 320 320 319 318 318 317 316 316 314 311 312 312 311 311 309 306 306 307 309 310 310 310 310 309 310 310 310 310 309 309 309 310 310 311 310 310 310 310 309 308 308 307 307
327 327 326 325 326 325 322 320 319 320 321 320 319 318 319 322 323 323 323 323 324 325 325 326 326 325 326 327 327 326 327 327 327 327 327 326 325 325 323 322 322 323 322 321 320 318 317 316 316 315 315 313 311 309 309 308 307 307 307 308 309 310 310 310 310 310 310 310 310 310 310 310 310 311 311 311 311 311 311 311 311 311 311 311 310
327 327 326 325 327 325 322 322 322 322 321 320 320 319 320 321 322 323 323 322 322 323 324 326 326 325 326 327 326 326 326 326 327 327 326 326 325 324 323 323 323 322 323 321 319 318 317 316 316 315 315 314 312 310 308 307 308 309 310 311 311 311 311 311 311 311 311 311 311 310 311 311 311 311 311 311 311 311 311 312 312 312 312 312 312
327 326 325 326 326 323 320 323 324 324 323 321 321 322 321 322 323 323 323 324 323 321 321 324 326 326 326 326 326 326 326 326 326 326 325 324 324 324 322 321 320 320 321 320 319 319 317 316 316 315 314 313 312 311 309 309 310 311 312 312 312 312 312 312 312 312 313 312 312 311 312 312 312 312 312 312 312 312 312 312 311 312 312 312 312
326 325 325 326 323 317 317 323 324 324 324 322 322 323 322 322 322 321 322 324 323 320 320 323 326 327 326 326 325 326 325 325 324 324 323 322 322 321 319 318 318 319 320 319 319 319 317 316 316 315 314 313 311 311 311 311 312 312 312 312 312 313 313 313 313 313 313 313 313 312 313 313 313 313 313 313 313 313 313 312 312 312 312 312 312
325 325 326 324 320 315 316 321 324 324 324 322 322 322 322 322 321 321 322 323 321 321 323 324 326 327 327 326 326 326 324 323 323 322 321 321 320 319 318 318 318 319 319 319 319 317 316 317 318 316 314 312 312 312 312 312 313 313 313 313 313 313 313 313 313 313 313 313 313 314 313 314 314 314 314 314 314 314 314 313 313 313 313 312 312
326 326 325 323 321 318 318 321 323 324 323 322 322 321 321 322 322 322 322 322 322 322 323 325 326 327 327 327 326 325 324 322 322 321 320 320 320 319 318 318 318 318 318 317 317 316 317 318 318 317 315 314 313 312 312 312 312 313 313 313 313 313 313 313 313 313 313 313 314 314 314 314 314 314 314 314 314 314 314 314 314 314 314 313 312
326 326 323 322 322 319 319 322 323 323 322 322 322 321 320 321 322 322 322 322 322 322 322 324 326 326 327 327 325 324 322 322 322 321 320 320 319 319 318 318 318 318 318 317 317 317 317 318 318 318 317 315 314 313 312 312 312 312 313 313 313 313 313 313 313 314 314 313 314 314 314 314 314 314 314 314 314 314 314 314 314 314 314 314 313
326 324 322 323 322 319 319 322 323 322 322 322 321 320 319 320 320 321 321 321 322 322 321 323 325 325 325 324 323 322 322 321 321 321 320 320 320 319 319 319 318 319 318 318 318 319 318 318 318 318 317 315 315 315 314 313 313 314 314 313 313 314 314 314 314 315 315 314 314 314 314 314 314 314 314 314 314 314 314 314 314 314 314 314 314
326 324 322 323 322 319 318 321 323 322 321 322 321 319 317 318 319 320 320 321 322 321 320 323 324 324 323 323 322 322 321 321 321 321 320 319 319 319 319 319 319 319 319 318 318 319 318 318 318 318 318 318 318 318 316 314 314 314 314 313 313 314 315 316 316 316 316 315 314 314 314 314 314 314 314 314 314 314 314 314 315 314 314 314 314
325 324 324 324 322 319 318 320 323 322 320 321 321 319 317 316 318 320 320 321 322 321 320 322 323 322 321 321 322 321 321 321 321 321 320 320 319 318 318 319 319 319 319 319 319 319 319 319 319 319 319 319 319 319 318 316 316 316 315 315 315 316 316 317 317 317 317 316 316 315 315 315 315 315 314 314 315 315 315 315 315 315 314 314 314
324 324 324 323 320 318 318 319 321 321 320 320 320 319 317 316 318 320 320 320 321 321 320 321 322 321 320 320 320 321 321 321 321 320 320 320 318 317 317 318 319 319 319 319 319 319 319 319 319 319 319 319 319 319 319 319 318 318 318 318 318 317 317 317 317 317 317 317 316 316 316 316 316 315 315 315 316 315 315 315 315 315 314 314 314
325 324 323 322 320 318 318 318 318 319 320 320 319 319 318 316 317 319 320 319 320 320 320 320 321 321 320 320 320 321 320 320 320 320 320 319 318 315 315 316 318 319 319 319 318 318 318 318 318 318 318 318 319 319 319 319 319 319 319 319 319 318 318 317 317 317 317 317 317 317 317 316 316 316 316 316 316 316 316 315 315 315 315 315 314
324 323 322 322 320 318 318 317 317 318 319 319 319 319 318 317 318 319 319 319 319 319 319 320 320 320 320 320 320 320 320 319 319 319 318 318 316 315 315 315 316 317 317 318 318 317 317 316 316 317 317 317 317 317 317 317 317 318 317 318 318 318 318 318 318 318 317 317 318 317 317 317 317 316 317 317 317 316 316 316 316 316 316 315 315
322 321 322 321 320 319 318 317 317 317 318 319 319 319 319 319 319 319 319 319 319 319 319 320 320 320 320 320 320 319 319 319 319 319 318 318 317 317 317 317 317 317 317 317 318 318 317 317 317 316 316 316 316 316 316 317 317 317 317 317 318 318 318 318 318 318 318 318 318 318 318 317 317 316 317 317 316 316 315 315 315 314 314 315 315
321 320 320 320 319 319 318 318 318 317 317 318 319 319 319 319 319 319 319 319 319 319 319 319 319 320 320 320 320 320 319 318 319 319 318 318 317 317 317 317 317 318 318 318 317 317 317 317 317 316 316 316 316 316 316 316 316 316 316 317 317 317 316 315 315 316 316 316 316 317 316 315 314 315 315 314 314 314 313 312 312 312 312 313 313
321 320 320 320 319 319 318 318 318 317 318 318 319 319 319 319 319 319 319 319 319 319 319 319 319 319 320 319 319 320 318 317 317 317 316 315 314 313 314 316 317 317 317 317 317 317 317 317 317 317 317 317 316 316 316 316 316 317 317 318 317 317 316 316 315 315 314 314 315 315 314 314 313 313 314 314 314 313 312 312 311 311 311 312 312
320 320 320 320 319 318 318 318 318 318 318 317 318 318 318 319 319 319 318 318 317 317 317 317 317 316 317 316 315 316 315 315 315 314 314 314 313 312 312 314 315 317 317 317 317 317 317 317 317 317 316 315 315 316 316 316 317 316 316 315 315 314 315 316 316 315 314 314 314 314 314 314 313 313 313 314 314 314 313 313 312 312 312 312 312
320 319 319 319 319 317 316 316 316 316 316 316 316 316 317 317 317 318 317 317 316 315 315 315 315 315 315 313 311 312 312 313 313 314 314 313 313 313 312 312 314 316 316 315 315 315 315 315 315 314 314 313 313 314 314 314 313 313 312 311 311 311 312 313 315 315 315 315 314 314 314 314 313 313 312 312 313 313 312 311 311 311 312 311 311
Wind_Speed
14 14 12 12 12 10 8 8 9 11 13 15 16 15 14 14 14 15 14 13 12 10 10 8 5 7 6 6 7 8 10 9 8 7 5 3 2 2 2 2 2 2 3 3 3 3 3 4 4 4 4 4 3 3 3 4 4 5 5 5 6 6 6 6 7 7 7 7 7 7 7 8 8 8 7 7 8 8 8 9 9 10 10 9 10
15 14 13 12 12 11 10 11 12 13 14 14 15 15 14 15 15 16 15 14 12 8 8 8 8 8 5 5 7 8 10 9 7 6 4 2 2 1 1 2 2 2 2 3 4 4 5 5 5 5 5 4 4 3 3 3 4 4 5 5 6 6 6 6 7 7 7 7 7 8 8 8 8 8 8 8 8 8 8 9 10 10 10 10 10
15 14 13 12 11 11 12 13 13 14 15 14 14 14 14 15 15 14 14 12 11 9 8 9 9 7 7 6 6 7 7 7 6 5 4 2 2 1 1 2 2 2 3 4 5 6 6 6 6 5 5 4 4 4 3 4 4 5 6 6 6 7 7 7 8 8 8 8 8 8 8 8 8 8 8 9 9 9 10 10 10 10 10 10 11
15 14 14 13 12 12 13 14 12 13 13 13 12 11 12 12 12 11 12 12 12 11 11 10 7 6 7 7 7 7 7 7 6 5 4 3 2 1 1 2 3 3 4 5 6 7 7 7 6 6 5 5 5 5 5 5 6 6 7 7 7 7 8 8 8 8 8 9 9 9 9 9 9 9 9 10 10 11 11 11 11 11 11 12 12
14 14 14 13 13 13 12 12 11 11 11 11 10 11 10 10 11 11 11 13 13 12 11 9 7 5 6 7 8 8 7 8 7 5 4 3 2 1 1 2 3 4 4 5 6 6 7 7 7 6 6 6 6 7 7 8 8 8 8 8 9 8 8 8 9 9 10 10 9 9 9 10 10 10 11 11 11 11 11 11 12 12 12 13 13
14 15 14 14 14 13 11 11 11 11 10 10 11 12 11 11 12 11 11 12 11 10 10 8 7 6 6 7 8 7 6 7 6 5 4 3 2 2 2 3 3 4 4 5 5 5 6 5 5 6 8 9 10 10 10 11 11 11 11 11 11 11 10 10 10 10 10 10 10 10 10 10 11 11 11 12 12 12 12 12 12 13 13 14 14
15 16 15 14 14 13 12 12 11 11 9 10 13 12 12 12 11 10 11 11 10 10 10 8 8 7 7 7 8 7 7 7 6 5 5 3 2 3 4 4 3 3 4 5 6 6 5 5 6 8 10 12 13 13 13 14 14 14 14 14 14 14 13 13 12 12 11 11 11 11 11 11 11 11 12 12 12 13 13 13 13 14 14 14 14
16 16 16 15 15 13 13 13 12 11 11 13 14 12 12 12 11 11 12 12 11 11 10 9 8 8 8 8 8 7 7 7 6 6 5 3 3 4 4 4 3 3 4 5 6 6 6 7 8 9 10 12 12 13 13 14 14 14 15 15 14 14 14 13 13 12 12 12 11 11 11 11 11 12 12 12 13 13 13 13 14 14 14 14 14
16 16 17 17 15 14 14 14 13 12 13 14 14 13 12 12 13 12 11 12 11 10 11 10 9 10 9 9 9 8 7 7 7 6 6 5 5 4 4 4 4 4 4 4 6 6 7 8 8 8 8 8 9 10 10 11 11 11 11 11 11 11 12 11 11 12 12 11 11 11 11 11 11 11 12 12 12 13 13 13 13 14 14 14 14
17 17 17 17 16 15 15 14 14 13 13 14 14 13 12 12 13 13 11 10 10 10 11 11 11 11 11 9 9 9 8 7 7 7 7 6 5 4 4 4 5 5 4 4 5 6 7 9 9 8 6 5 6 6 7 7 7 7 8 8 7 8 9 9 9 10 11 11 11 10 10 11 11 11 11 12 12 12 12 13 13 13 13 13 13
18 18 18 17 16 16 15 15 14 13 13 14 15 14 12 13 12 12 11 10 10 10 11 12 14 13 11 10 9 9 8 7 7 7 7 6 5 5 5 5 6 6 5 4 5 6 7 8 9 8 6 5 5 5 5 4 4 3 4 5 5 5 7 8 7 7 9 10 10 10 10 10 11 11 11 11 12 12 12 12 13 12 12 11 11
17 18 18 18 16 16 16 15 14 13 14 15 16 14 12 13 12 12 12 12 12 12 12 13 14 13 11 10 9 9 8 7 6 7 8 6 5 6 7 7 7 7 6 5 5 6 7 7 8 8 7 6 5 5 5 4 4 3 3 3 3 3 4 6 6 6 7 8 9 9 9 9 10 11 11 11 11 11 11 11 10 10 9 9 9
17 17 17 18 17 16 15 14 14 14 15 15 15 15 12 12 13 12 12 12 13 14 14 14 14 14 12 10 10 9 9 8 7 8 8 6 5 6 7 8 7 7 7 6 6 6 7 7 8 7 7 6 5 4 4 4 4 4 4 4 3 4 4 3 3 4 5 6 6 7 7 8 9 10 10 11 10 10 9 8 7 7 8 8 8
18 17 16 16 17 15 13 13 14 14 15 15 15 14 12 12 14 14 12 10 11 14 15 14 14 14 13 12 11 9 8 8 8 8 8 6 6 5 6 8 7 7 7 6 6 7 7 7 8 8 7 6 5 4 3 3 4 4 4 4 5 5 4 4 3 1 2 3 4 4 4 6 7 8 8 8 8 7 6 5 5 6 7 7 9
18 17 15 14 15 14 11 12 14 15 15 15 15 14 13 14 14 14 14 12 11 13 14 13 12 12 13 13 12 11 9 8 7 7 7 7 7 7 7 8 8 8 8 8 8 8 8 8 7 7 7 6 5 4 3 3 4 3 4 4 5 5 5 5 4 3 1 1 2 2 2 5 6 6 5 5 5 4 4 4 5 5 6 6 7
18 17 15 13 13 13 12 13 15 15 16 16 15 14 14 15 15 15 15 14 14 14 14 13 10 11 13 12 12 12 9 8 9 7 6 7 7 8 8 10 9 9 9 9 8 8 8 7 7 7 6 6 5 4 3 3 3 2 3 4 5 6 6 5 5 3 2 2 2 1 2 4 5 6 5 4 3 3 4 5 5 5 6 7 7
18 16 15 13 13 13 13 15 15 16 16 15 14 14 14 15 16 16 15 13 14 15 15 13 10 10 11 10 10 11 11 12 11 7 6 7 8 8 9 10 10 9 10 10 9 8 8 7 6 7 6 5 4 4 4 4 4 3 3 4 5 7 7 6 5 4 2 3 3 3 5 6 6 6 5 4 5 5 6 7 7 6 6 7 7
17 15 14 13 12 12 14 15 15 16 15 14 14 14 14 16 16 16 14 12 12 14 16 14 11 12 13 9 7 7 11 16 14 10 8 7 7 8 9 10 10 9 10 10 9 9 8 7 6 6 6 6 5 5 5 5 4 4 4 4 6 8 8 7 6 6 5 4 3 3 5 7 7 7 6 6 6 7 7 7 6 6 5 5 5
16 15 14 13 12 12 14 15 15 15 13 14 15 14 15 17 17 15 14 13 12 14 16 15 15 16 14 12 9 5 7 13 14 14 14 11 9 8 9 9 9 9 9 9 8 8 8 7 6 6 6 6 6 5 5 6 5 5 5 5 5 7 8 8 8 8 6 4 5 6 6 7 8 8 7 7 7 6 6 6 5 5 4 4 4
15 14 14 14 13 13 14 15 15 14 13 15 16 15 16 17 17 16 15 14 13 14 17 17 18 18 15 14 12 7 8 13 13 12 15 17 13 10 10 10 10 9 8 8 8 8 7 7 6 6 5 6 7 6 6 7 7 7 7 6 6 7 8 8 7 6 4 5 6 6 7 8 8 8 8 7 6 6 5 5 4 3 3 3 2
15 15 15 15 14 14 15 15 15 14 14 15 16 16 18 18 17 17 16 15 14 14 17 17 17 17 16 15 12 10 12 14 12 12 14 18 17 15 14 12 11 10 9 9 9 8 7 6 6 6 5 7 8 8 7 7 7 8 7 7 7 8 8 7 6 5 5 6 6 6 6 7 7 7 7 6 5 5 4 3 2 2 1 2 2
16 17 16 15 15 15 15 15 15 14 14 15 16 17 17 17 17 17 16 16 15 15 15 16 16 16 15 15 13 14 16 16 15 14 15 17 18 18 17 15 14 12 11 10 9 9 7 5 6 6 6 7 8 8 8 8 7 7 7 7 7 7 7 6 6 5 5 5 5 5 5 5 5 5 5 5 4 3 3 2 1 1 1 1 2
18 17 16 15 15 15 14 15 15 15 15 15 16 16 16 16 16 16 16 16 16 15 14 15 17 16 15 14 14 14 15 15 16 15 16 16 16 19 19 15 14 13 12 10 8 8 8 7 6 6 6 6 7 9 9 8 7 7 7 7 7 6 5 5 5 4 4 3 3 3 3 4 4 4 3 3 3 2 1 1 1 1 1 1 2
18 17 15 14 16 16 16 16 16 16 16 16 15 15 16 16 15 15 15 15 16 16 15 16 17 16 15 14 13 13 13 12 13 14 14 13 13 19 20 16 16 14 13 12 10 9 8 7 6 5 5 7 8 9 8 8 7 7 7 7 6 5 5 4 3 2 2 2 2 3 3 3 3 3 3 3 2 2 2 2 2 1 1 1 1
18 17 15 16 18 18 18 17 17 17 16 16 16 16 15 15 15 15 16 16 16 15 15 16 16 15 15 14 13 13 13 11 11 12 13 12 13 19 20 17 16 16 15 13 12 12 8 6 4 4 4 6 8 9 8 7 7 7 7 7 6 5 4 3 2 2 2 3 3 3 3 3 3 3 3 3 3 2 2 2 1 1 1 2 2
19 18 17 17 19 18 18 17 16 16 16 16 16 16 15 15 15 15 16 16 15 14 15 15 14 14 14 15 14 13 13 13 12 13 13 13 15 20 20 17 16 15 16 14 12 12 10 6 4 2 3 5 8 9 8 8 8 8 7 6 5 4 3 3 3 3 3 4 4 4 4 3 3 3 3 2 2 2 1 2 2 2 3 4 5
19 19 17 17 18 18 17 17 16 15 16 15 16 16 15 15 16 15 15 15 15 15 15 15 14 14 14 15 14 14 15 15 14 13 13 13 14 17 18 19 19 18 16 15 14 12 9 7 5 3 3 5 8 8 8 8 8 8 7 6 4 2 2 3 4 4 4 4 4 4 4 3 3 2 2 2 2 2 3 3 4 4 5 6 7
19 18 17 17 17 18 17 18 17 16 16 15 15 16 16 16 16 15 15 15 15 15 15 15 15 15 14 14 14 15 15 15 14 14 12 12 12 15 16 16 17 20 20 17 16 15 10 6 6 6 6 6 7 8 8 8 8 7 6 4 3 2 3 4 4 5 5 5 4 4 4 4 4 4 4 4 4 4 4 4 5 5 5 5 6
19 19 18 17 17 17 17 17 17 16 16 16 16 16 16 16 15 15 15 15 15 15 15 15 15 14 14 14 14 15 15 14 14 13 12 12 13 15 17 14 11 14 20 21 18 15 12 9 7 7 7 7 7 8 8 8 8 7 5 3 3 3 4 5 5 5 4 4 4 4 4 4 4 4 4 4 4 4 4 5 5 5 5 5 6
20 21 20 18 18 17 17 17 16 17 17 17 16 15 15 15 14 14 14 14 15 15 13 13 14 14 14 14 15 16 16 16 15 14 14 14 14 15 18 17 12 8 10 16 17 14 11 11 9 5 3 7 9 8 8 8 7 6 4 4 4 4 4 4 5 4 4 3 3 2 2 2 2 2 3 3 3 4 5 5 6 6 6 6 7
21 23 21 19 19 18 16 16 16 16 17 17 16 15 15 14 14 15 14 14 15 14 13 14 15 15 15 15 16 17 17 17 16 15 16 15 15 17 18 18 16 10 4 7 11 12 12 11 10 6 3 6 10 9 9 9 7 7 6 5 5 5 5 5 5 5 4 3 2 2 2 1 0 1 2 3 4 5 5 6 6 6 6 6 7
21 22 21 19 19 18 16 16 17 17 17 16 16 16 15 14 14 15 15 15 15 14 13 14 15 16 16 15 16 18 18 17 17 16 16 16 15 15 17 16 15 13 10 7 5 7 11 11 10 8 3 4 8 10 10 9 9 8 7 6 7 6 6 6 6 5 5 4 3 3 3 3 2 3 4 4 5 6 6 6 6 6 6 6 7
20 21 20 19 19 17 16 16 18 18 17 16 16 16 16 15 15 15 14 14 14 13 13 14 15 16 16 16 16 18 19 19 18 18 18 17 15 14 16 16 15 14 14 13 9 6 10 12 11 10 5 3 6 9 10 11 10 8 7 6 7 7 7 7 6 6 6 5 5 5 5 4 4 4 4 5 6 7 7 7 7 7 7 8 8
20 20 19 20 19 16 15 17 19 19 16 15 16 17 16 16 16 14 14 13 13 13 13 14 16 17 17 17 16 17 19 19 18 19 20 19 16 16 17 17 16 16 16 18 16 11 9 10 12 12 8 5 5 7 9 10 8 7 6 6 6 7 8 7 7 6 6 7 7 7 7 6 5 4 5 6 7 8 8 9 9 9 9 9 9
19 19 20 21 19 15 15 19 20 18 16 15 16 17 17 16 16 15 13 12 11 10 12 13 15 17 17 17 17 16 18 19 17 16 17 17 16 16 17 17 18 20 21 21 19 14 10 9 11 12 11 8 5 5 6 8 8 6 5 3 3 5 6 7 7 6 6 7 8 8 7 6 5 5 5 6 8 9 10 11 11 11 11 11 11
19 20 21 19 15 14 18 22 21 18 17 17 18 18 16 15 14 12 11 11 9 6 9 13 15 16 18 17 16 16 17 17 15 14 14 15 16 16 15 13 14 18 22 22 19 15 12 10 9 9 10 9 5 4 7 9 8 7 6 5 4 4 5 7 8 7 6 6 6 7 6 6 7 6 7 8 9 10 12 13 14 14 14 14 15
20 21 20 17 13 15 21 23 22 19 18 17 18 17 14 12 11 11 12 11 8 5 7 13 15 16 18 17 16 16 16 16 15 14 13 13 14 14 13 11 9 12 19 22 19 16 12 8 7 8 10 10 7 7 8 9 9 9 8 9 8 7 8 8 9 9 8 6 6 7 8 8 8 8 8 9 10 11 12 13 14 15 15 16 17
22 21 19 16 13 15 20 23 22 21 19 18 18 16 14 12 12 13 14 11 8 6 8 13 15 15 16 16 16 17 17 17 14 12 11 12 13 13 13 11 8 9 14 17 17 15 10 6 6 7 9 11 10 10 10 10 10 10 10 11 12 12 12 12 11 10 10 9 9 10 11 11 11 11 11 12 13 14 14 15 15 15 15 16 17
23 21 18 16 15 14 18 22 22 21 20 18 18 18 16 15 15 14 14 12 9 7 8 11 14 16 17 17 17 17 18 16 12 10 10 10 12 13 12 10 8 8 11 13 14 15 12 8 7 7 8 9 10 11 12 12 13 14 14 15 15 15 16 17 16 14 14 14 14 14 14 14 15 15 15 16 16 16 17 17 18 17 17 16 17
24 21 19 19 18 16 19 22 20 19 20 18 17 18 17 16 17 15 14 13 11 9 9 10 14 16 17 16 15 16 16 13 10 10 10 9 9 11 11 9 8 9 11 13 14 14 12 10 8 8 9 10 11 12 14 16 17 17 16 17 17 16 17 18 18 17 18 19 19 18 18 19 19 19 19 19 19 19 19 20 20 20 20 20 20
24 22 21 21 19 17 18 21 19 17 19 17 14 16 18 18 17 16 14 14 13 11 10 11 14 15 15 14 14 13 13 11 9 9 9 8 7 8 10 10 10 10 11 12 12 12 12 12 11 10 11 12 13 14 16 18 18 18 17 18 18 16 16 19 19 18 20 22 23 23 22 22 23 22 23 23 22 21 21 21 22 22 22 23 23
25 24 23 21 19 18 18 20 19 17 18 17 14 13 15 17 17 15 14 15 16 13 12 13 16 16 16 15 14 13 12 11 9 8 8 8 7 6 9 11 11 10 10 10 10 10 12 13 14 13 14 14 14 14 16 18 19 19 20 21 20 18 17 20 20 19 19 21 24 26 25 25 26 26 26 26 24 23 23 23 22 23 24 25 25
26 25 24 21 19 19 19 19 18 17 17 17 16 12 12 16 17 15 15 17 17 15 13 15 17 15 15 15 15 14 13 11 9 8 8 8 8 6 7 10 10 10 10 10 10 10 10 12 13 14 13 13 14 15 17 19 20 21 21 21 20 20 21 23 23 21 20 20 23 25 25 25 26 28 27 26 24 24 24 23 22 23 25 26 27
27 26 24 22 20 20 20 20 18 17 16 17 16 13 13 16 18 16 16 17 18 18 16 16 17 16 15 15 15 14 13 12 11 10 8 8 8 7 6 7 8 8 9 9 10 10 10 11 12 12 11 11 13 14 15 17 17 17 18 18 19 21 22 23 23 22 21 21 22 25 25 23 24 26 26 24 23 23 24 22 22 23 25 26 27
28 26 25 23 21 20 20 20 19 17 17 17 17 15 13 16 18 18 17 16 17 18 17 16 18 18 16 15 15 14 14 13 13 12 11 10 9 8 8 8 8 9 9 10 10 11 12 12 13 13 13 14 15 15 15 16 17 17 18 18 19 21 21 21 21 22 23 23 24 26 26 25 25 27 26 23 22 23 24 22 22 23 24 25 27
27 26 25 23 21 21 20 20 19 19 18 17 17 16 14 15 18 19 19 18 17 17 16 16 17 17 16 15 15 15 14 14 13 12 12 11 9 9 9 10 10 10 11 11 12 13 14 14 15 15 16 17 18 19 18 19 20 21 22 22 24 25 24 22 22 22 23 23 24 27 28 28 27 26 24 22 23 25 26 25 25 25 24 25 26
27 27 26 23 21 21 21 20 19 19 19 18 18 18 16 15 17 19 19 19 18 17 17 17 17 17 16 15 15 15 15 14 13 11 9 8 6 6 7 8 9 10 12 13 13 14 15 16 16 17 18 19 21 22 22 22 22 23 24 26 26 25 24 24 24 24 24 24 25 27 28 28 28 27 25 24 25 26 26 26 26 26 26 26 26
27 26 25 23 22 22 22 20 20 20 20 19 19 18 18 17 17 18 18 19 19 19 18 17 16 17 16 15 15 16 12 10 10 9 7 5 4 4 6 8 10 12 13 14 15 16 17 18 19 20 21 22 23 24 24 25 25 25 25 25 24 22 22 24 26 26 26 25 25 25 25 25 25 25 25 24 24 24 24 23 24 25 26 26 26
28 27 25 24 23 23 22 20 20 20 21 20 19 18 18 18 18 19 19 19 20 20 19 18 16 16 15 15 14 14 10 7 9 10 11 11 9 7 9 11 13 14 16 17 18 19 20 21 22 23 24 24 24 24 23 23 23 23 23 23 22 21 20 21 22 23 22 21 21 22 25 26 23 22 23 22 22 23 23 24 26 27 29 29 29
30 28 27 26 24 22 21 20 20 20 20 20 19 18 17 17 17 18 18 18 19 20 19 17 16 15 13 10 9 9 9 8 9 11 13 14 14 13 14 16 17 17 18 19 20 20 21 22 23 23 23 23 22 21 20 20 20 21 22 23 22 22 22 22 22 23 24 23 21 21 23 24 22 21 21 21 22 23 25 26 28 28 29 29 29
30 28 27 26 24 22 20 19 18 18 18 19 18 17 17 16 16 16 17 17 18 16 13 10 11 12 11 9 9 9 9 9 10 10 11 12 14 16 18 20 21 21 21 21 21 21 20 20 20 21 21 21 21 22 22 22 23 24 25 26 25 24 24 24 23 24 24 23 22 21 22 24 23 23 23 23 23 24 26 27 27 27 28 28 28
Wind_Direction
166 163 163 163 161 162 167 160 153 157 162 168 175 177 178 176 170 166 170 181 194 198 176 164 190 206 226 253 258 263 264 270 280 283 290 300 320 349 2 27 65 78 87 91 91 94 91 93 92 92 92 88 92 90 91 94 92 94 95 97 99 103 107 108 107 104 103 100 97 96 93 95 94 91 90 87 86 85 85 83 82 80 78 79 79
170 168 169 171 166 166 168 156 148 148 151 157 164 166 167 168 169 174 181 188 193 193 173 179 213 217 217 236 243 252 258 264 272 275 276 278 297 329 17 42 65 85 96 103 107 107 100 97 92 89 90 89 93 95 95 99 102 102 96 98 102 103 103 101 100 98 96 94 92 90 85 85 86 86 82 80 82 83 82 82 81 79 77 77 77
176 175 173 174 173 167 163 156 149 145 146 149 150 153 159 165 172 179 184 187 188 193 195 208 226 229 224 221 225 240 249 255 261 261 257 253 270 318 63 78 81 97 110 116 116 116 109 102 97 89 87 87 88 91 96 99 100 98 93 95 99 98 97 95 96 96 94 93 90 88 87 86 87 87 87 86 84 83 82 82 82 80 79 78 76
180 182 179 178 177 168 158 154 148 145 146 141 144 157 161 166 174 176 181 184 190 200 206 213 223 230 226 220 226 241 244 245 250 247 244 240 215 194 102 101 99 109 124 130 131 126 114 99 91 86 83 81 85 88 92 96 96 98 98 98 100 99 97 97 97 97 94 94 94 94 93 92 91 89 88 87 85 83 83 83 82 82 81 80 78
184 182 182 180 177 167 156 157 155 155 151 140 163 184 167 175 190 184 189 194 199 207 208 210 214 221 224 224 232 241 239 234 235 228 218 211 196 198 175 138 122 127 137 147 148 133 114 92 77 77 83 85 91 93 93 98 100 101 103 103 103 101 101 99 97 97 97 97 98 99 97 94 92 89 86 85 85 84 84 84 83 83 83 82 81
187 182 183 181 175 165 160 169 169 168 164 157 185 193 167 182 197 189 196 203 209 212 208 208 207 209 212 219 226 225 217 214 218 210 196 186 178 174 155 141 131 134 146 157 152 132 119 101 82 84 92 93 94 96 96 98 100 101 102 101 99 98 97 96 95 95 96 97 96 95 94 92 91 90 88 86 85 85 85 84 83 84 85 85 84
190 185 186 182 176 170 170 179 177 177 180 175 189 188 168 180 191 194 205 207 211 213 210 206 197 193 191 199 207 208 201 199 208 204 191 189 174 160 148 139 133 138 151 153 144 135 135 132 117 104 98 96 94 95 96 98 99 99 98 96 94 93 92 91 92 92 92 92 92 91 91 91 92 92 92 91 89 88 88 88 88 88 88 87 86
196 191 190 187 181 179 182 187 187 189 190 184 188 187 179 185 191 202 212 206 204 208 209 200 185 180 182 189 193 198 199 194 203 207 203 208 182 165 156 150 148 148 150 150 149 148 148 145 135 119 105 99 98 96 96 97 96 96 95 93 92 90 89 89 89 89 89 89 90 92 93 93 94 95 95 95 94 93 93 93 93 92 90 88 86
204 198 194 192 186 186 190 192 194 195 191 186 188 191 193 196 193 197 206 203 201 205 204 196 184 181 180 185 186 187 193 194 203 212 216 217 193 180 175 167 163 159 152 158 168 162 156 154 149 141 124 110 103 100 99 97 96 96 96 93 90 89 88 88 90 90 91 93 94 95 97 98 97 97 96 96 96 96 96 95 93 92 89 87 84
210 202 196 194 194 194 193 192 193 193 191 191 193 195 195 198 196 195 199 202 207 208 204 194 182 181 181 185 189 186 186 194 203 210 215 218 210 201 196 186 177 170 163 170 179 176 170 163 160 162 151 130 116 112 112 109 104 100 98 94 88 90 90 87 91 96 95 95 96 96 98 101 100 98 97 97 98 98 97 96 93 90 86 83 80
209 203 199 198 200 199 194 192 193 193 191 191 195 197 192 191 191 193 197 201 210 208 199 188 177 178 185 183 180 181 182 184 191 205 216 218 218 211 204 202 192 179 172 172 173 176 178 171 167 171 166 150 136 132 136 136 130 118 113 107 96 96 95 87 85 92 96 94 95 95 97 101 101 100 99 99 101 100 100 99 95 89 83 78 74
207 204 205 204 204 201 196 195 196 196 193 187 190 195 192 187 185 194 200 195 199 201 191 184 176 175 182 175 166 168 173 175 179 198 214 214 209 209 204 202 198 182 173 169 162 165 176 179 176 175 175 166 149 140 142 142 147 151 154 142 122 114 104 90 81 86 97 98 99 101 100 101 102 101 101 102 104 104 105 103 99 90 83 78 74
207 207 209 208 205 200 195 197 200 201 197 189 190 192 186 184 183 193 207 199 192 190 186 186 182 176 174 167 165 168 170 171 173 188 205 210 206 207 203 201 196 179 172 170 160 162 173 181 182 179 176 171 157 149 143 136 147 159 170 175 160 144 133 122 94 81 97 102 107 115 113 108 104 102 101 102 104 106 106 104 96 83 71 63 57
207 208 209 207 203 200 199 200 201 204 204 197 194 189 179 187 191 191 200 206 198 188 185 187 185 182 177 167 162 163 171 174 170 179 190 197 201 202 199 197 191 178 177 179 173 168 174 181 181 179 177 173 166 162 152 140 144 150 158 170 172 168 159 154 149 109 86 93 103 116 124 121 111 105 101 101 100 101 99 94 85 69 55 47 42
208 208 208 204 201 201 204 206 204 207 208 199 191 183 179 191 198 198 194 193 196 190 187 191 190 185 177 168 165 160 163 177 180 189 195 194 194 191 187 186 182 180 185 190 186 176 179 182 179 176 176 175 173 170 159 149 147 144 149 159 170 176 171 167 170 169 160 109 105 99 122 128 117 114 114 107 100 92 85 82 78 63 53 54 52
207 208 206 203 204 204 206 211 209 208 203 191 184 184 187 192 196 205 202 191 189 185 184 192 196 192 177 166 170 167 159 178 189 191 192 187 184 182 181 183 183 184 188 193 191 183 181 177 169 172 177 174 173 172 167 164 164 159 160 163 168 173 170 167 169 167 178 180 176 201 168 143 131 133 136 122 108 99 93 89 84 75 72 78 80
205 205 204 203 206 205 204 208 205 200 192 180 179 184 189 194 198 205 207 203 196 184 183 189 192 207 202 178 171 177 176 181 181 173 172 175 174 173 174 179 183 186 189 190 188 184 177 171 171 177 179 175 168 172 182 183 181 181 180 172 165 166 163 158 158 153 162 184 193 204 178 160 153 152 149 133 120 113 109 107 102 96 89 86 86
201 201 199 199 200 195 196 200 194 188 182 175 179 184 185 194 203 206 205 209 207 192 186 186 187 204 214 203 190 196 192 185 172 156 160 175 177 171 169 176 182 188 191 185 182 183 175 176 189 192 188 185 179 184 190 185 178 176 170 165 162 162 158 154 149 139 143 168 168 146 146 154 159 157 151 138 126 118 114 113 108 101 92 85 81
197 197 197 195 194 190 191 193 185 180 179 179 185 187 186 193 202 206 203 203 208 203 190 183 188 199 205 206 209 231 217 199 182 165 165 173 184 180 172 178 182 184 188 181 180 185 184 188 200 200 195 193 190 188 183 175 168 156 142 138 148 157 158 154 147 142 149 147 118 103 109 125 137 141 140 135 129 123 117 112 104 99 96 90 80
197 197 194 189 186 186 188 186 180 178 180 183 188 189 187 193 199 202 203 201 205 207 199 192 193 197 199 200 209 232 226 211 205 194 179 171 176 183 177 181 183 181 185 183 185 192 193 198 198 194 198 197 189 179 171 167 160 148 136 127 129 139 146 147 142 141 137 107 95 94 97 107 118 126 128 126 124 121 117 113 111 108 97 80 60
194 191 185 180 180 183 184 181 179 181 182 184 188 188 189 194 199 201 202 202 202 204 207 207 200 197 200 197 203 211 201 200 208 214 195 173 173 182 177 176 180 181 183 182 184 187 189 188 179 177 186 186 179 169 164 165 159 151 142 131 128 128 127 128 121 111 97 86 89 92 97 106 113 117 120 122 125 126 125 125 120 103 65 37 19
186 184 181 178 178 182 183 180 180 184 183 184 186 186 190 195 199 204 204 200 200 200 206 213 206 204 208 202 201 197 191 195 199 202 198 182 177 178 174 173 175 173 170 173 176 170 164 160 155 160 168 168 167 166 166 167 163 156 148 137 129 122 114 111 103 92 84 82 89 98 106 113 117 122 130 138 142 144 140 131 112 69 38 18 15
184 184 182 180 180 183 182 180 181 185 184 183 185 186 189 193 196 203 205 202 201 199 201 210 209 209 213 213 214 209 202 203 199 194 194 190 182 174 170 172 174 167 160 162 165 157 146 144 149 157 163 162 162 164 167 171 170 163 153 142 133 122 111 101 91 85 85 90 101 113 125 126 131 141 148 154 155 153 152 135 106 78 57 56 48
185 187 186 185 184 183 183 183 182 184 184 184 188 191 191 191 193 198 202 204 205 201 198 205 211 212 212 214 218 219 219 218 207 195 192 201 191 170 165 167 167 163 159 159 159 155 142 137 144 152 164 170 165 163 170 176 176 171 158 148 140 129 119 106 98 103 111 120 135 138 140 141 143 149 152 152 151 144 143 127 107 90 62 50 33
186 190 193 192 188 185 186 186 184 183 183 183 188 194 195 193 192 194 198 203 207 206 203 206 212 213 210 211 211 212 217 218 212 199 192 202 192 170 164 166 167 162 160 163 163 160 151 135 136 139 148 167 169 166 173 181 181 176 165 156 151 141 134 134 140 156 156 149 146 137 133 132 133 137 137 133 128 124 121 101 82 45 6 2 357
190 194 195 191 188 188 189 188 186 183 181 184 188 193 198 196 194 195 197 201 205 207 207 208 212 210 208 210 207 205 210 213 212 203 194 196 191 178 168 165 167 164 162 168 172 170 166 155 140 117 124 160 171 169 174 185 187 180 172 166 162 155 157 170 168 166 163 152 139 128 124 122 122 124 118 111 102 81 58 34 11 0 356 359 1
194 195 191 187 186 187 190 190 189 185 182 185 188 191 196 198 198 198 196 199 203 205 207 210 213 210 206 209 208 204 207 211 210 202 200 201 196 191 180 167 165 166 167 175 183 186 182 159 141 130 130 155 171 176 180 187 191 185 177 172 171 185 191 177 168 159 148 137 126 118 111 101 90 79 65 52 42 25 15 5 359 359 359 2 5
196 194 191 188 186 186 189 192 193 188 184 186 186 186 191 196 198 196 193 195 199 204 208 211 213 210 204 205 207 206 206 208 206 200 203 208 204 202 195 181 172 169 172 180 191 196 195 173 145 142 150 165 177 185 191 193 195 189 181 178 188 212 195 171 165 156 141 127 114 101 88 74 61 50 40 31 24 13 5 359 351 348 351 355 358
200 197 194 192 190 188 188 190 192 189 186 186 184 183 187 193 196 193 191 193 197 202 206 208 207 205 203 203 203 204 205 204 203 202 203 204 206 204 197 193 191 178 176 183 193 196 190 182 168 150 155 177 189 196 199 198 198 194 193 202 204 203 189 174 169 163 146 132 119 105 93 76 62 48 37 27 17 7 356 347 336 333 337 342 346
202 199 196 194 193 191 187 186 187 187 186 185 184 183 184 188 191 188 189 194 196 198 200 201 201 200 202 202 199 199 202 203 202 201 197 192 194 195 189 188 193 187 175 181 189 192 187 181 183 184 190 192 193 201 206 202 201 205 215 219 204 191 188 184 181 180 171 160 149 132 119 92 66 42 18 4 357 356 347 338 332 330 332 335 338
200 199 198 194 190 189 185 182 183 185 185 183 183 183 183 184 183 181 185 192 196 196 196 196 198 200 200 198 196 196 198 202 200 194 190 187 184 186 187 189 192 193 185 176 180 189 195 194 192 199 240 212 198 199 207 209 210 217 222 214 201 193 194 197 195 196 199 200 195 176 173 176 334 327 332 336 341 343 338 335 332 330 333 332 332
194 196 196 190 189 189 185 181 182 181 180 181 181 182 183 182 179 180 183 188 192 195 195 195 195 198 199 195 194 194 194 197 197 194 193 190 186 187 193 198 200 200 202 201 192 184 193 204 206 199 198 204 203 202 208 217 221 221 221 214 207 204 204 207 207 209 217 226 233 236 235 242 260 290 313 326 333 334 328 325 324 325 329 330 330
192 193 193 191 190 189 183 179 179 176 173 174 176 178 179 177 177 180 183 185 190 193 193 193 193 194 195 195 195 192 190 193 194 196 201 200 198 198 199 203 208 211 214 217 220 204 193 196 202 207 205 193 202 207 211 219 224 223 224 225 224 220 218 216 216 222 233 242 250 254 252 250 257 278 302 314 318 319 316 318 321 325 328 331 333
195 196 194 190 188 185 178 175 175 173 169 167 169 173 174 172 172 174 175 178 186 193 193 191 191 192 192 194 195 191 192 194 192 195 201 202 201 200 200 208 219 224 229 230 224 221 216 200 195 206 217 213 209 215 215 214 218 227 234 240 243 238 234 231 229 235 247 256 261 260 255 250 254 271 291 302 307 308 309 311 314 318 322 324 326
195 198 193 185 183 185 178 173 172 170 165 161 160 161 161 160 160 159 160 163 170 186 195 193 192 193 191 190 191 193 197 196 192 195 198 196 199 203 205 219 234 237 239 235 225 227 235 217 202 209 221 226 224 224 218 206 205 219 229 232 239 239 244 249 248 249 260 268 266 258 251 251 259 275 290 300 305 305 306 307 307 308 310 310 312
193 192 186 182 185 186 178 172 169 167 164 161 156 154 155 157 161 164 165 162 158 173 195 196 197 195 191 191 190 190 195 193 188 191 191 191 201 208 209 220 234 235 231 225 223 235 244 231 220 223 228 235 234 208 200 200 207 220 226 230 241 248 255 260 259 257 263 274 264 251 252 264 271 278 286 293 299 301 302 303 303 303 303 302 303
190 182 178 182 184 179 176 173 168 167 167 162 158 160 164 166 170 177 179 174 168 176 194 197 199 195 190 190 189 185 183 179 177 182 185 191 199 203 207 211 209 211 214 216 223 237 241 232 232 232 227 229 231 218 210 215 228 236 236 238 246 255 256 258 263 261 256 257 252 250 262 272 275 276 281 286 290 292 293 292 293 295 296 297 298
184 175 175 177 168 163 170 172 168 168 169 166 166 169 169 163 161 164 167 166 164 170 183 187 190 191 188 187 186 181 174 171 173 178 185 194 199 201 208 211 199 193 202 210 219 224 225 223 229 233 229 225 228 233 236 240 247 252 253 253 254 256 256 257 265 267 260 259 259 259 264 269 272 276 279 283 284 285 285 286 287 290 291 292 292
179 176 176 168 157 153 162 166 167 171 173 170 172 176 170 159 157 158 157 159 161 158 166 177 183 187 186 183 181 177 172 174 179 183 184 187 194 199 203 203 197 191 194 201 208 215 221 223 224 232 237 235 236 243 248 250 254 257 259 260 259 259 262 265 270 273 271 270 269 267 265 264 265 268 271 275 278 281 283 285 286 288 289 288 287
175 178 174 164 161 159 160 163 167 173 175 174 175 180 178 166 163 167 166 167 171 162 156 169 179 182 179 175 173 172 174 182 189 191 190 187 188 193 191 190 187 184 188 195 204 212 219 224 232 238 240 241 245 250 250 247 249 254 258 261 262 263 265 269 273 276 275 273 271 269 266 264 264 266 270 273 276 280 283 285 286 287 288 288 288
174 177 174 170 169 164 163 167 170 171 175 177 175 178 184 179 173 176 174 171 173 165 158 167 174 171 166 166 169 170 176 185 188 193 199 197 193 187 184 189 193 193 193 194 198 204 209 218 230 239 242 244 246 249 250 249 253 261 266 265 266 269 269 269 269 270 271 272 271 268 266 265 266 267 269 272 275 279 281 282 285 287 288 288 288
175 176 172 173 173 168 168 171 172 173 175 179 177 173 181 182 176 174 170 166 168 165 158 165 171 170 169 173 174 175 181 187 188 196 201 201 202 192 183 189 196 202 204 199 198 202 207 216 224 230 239 245 247 249 252 255 263 270 270 267 267 270 269 266 265 266 268 270 269 267 266 267 268 267 267 269 273 276 276 278 281 285 286 285 284
176 176 172 173 176 175 174 173 174 176 176 178 178 172 172 174 171 169 167 166 168 169 163 163 168 169 173 179 179 179 186 191 195 204 208 208 211 205 193 193 197 206 212 211 210 211 212 218 222 226 233 239 242 245 248 252 257 262 266 268 269 270 267 265 267 271 273 272 271 270 268 267 266 265 263 264 268 270 272 275 278 281 282 281 281
176 176 174 173 175 178 179 177 176 178 177 176 177 178 176 173 170 171 172 169 168 171 170 170 173 173 172 177 180 180 187 194 200 206 211 212 214 214 212 209 208 215 222 225 226 222 224 230 230 229 234 239 242 243 245 248 251 254 259 262 264 264 263 264 268 273 275 276 276 275 273 270 268 266 262 261 264 266 268 270 272 273 274 275 276
178 179 177 175 176 179 180 180 179 180 179 177 180 183 182 180 178 177 176 173 170 170 171 172 177 181 180 181 184 186 192 198 202 206 209 212 217 221 227 232 233 233 231 233 236 237 241 248 248 246 247 249 250 250 249 250 252 255 258 260 260 263 265 265 266 269 271 273 275 276 276 274 272 270 268 267 269 270 272 273 274 273 272 272 272
180 181 179 178 178 178 180 181 181 180 179 178 181 183 181 181 183 182 183 182 178 176 177 176 178 183 187 191 196 199 203 205 207 210 210 212 220 224 227 234 241 245 246 246 248 251 254 257 259 260 259 259 259 261 261 262 262 263 264 265 265 267 269 271 272 271 271 272 275 277 277 276 275 275 276 278 277 276 277 279 280 280 279 277 275
179 181 180 179 178 177 179 181 180 179 177 175 177 181 181 182 184 187 191 192 188 183 181 180 182 186 192 198 201 203 203 197 193 196 197 198 210 223 232 241 248 253 256 258 261 263 263 263 264 266 268 269 268 268 268 271 273 273 272 272 272 272 274 275 275 274 272 273 277 280 281 281 282 282 284 286 285 283 283 283 283 283 282 281 279
177 179 178 177 176 176 176 178 179 179 176 173 174 178 181 183 185 187 190 192 190 186 182 181 183 185 189 194 199 205 205 183 172 187 203 205 219 255 264 262 261 262 264 265 267 268 268 269 270 272 273 274 273 272 272 274 276 277 276 275 279 284 282 277 274 273 275 277 283 290 293 292 290 289 291 293 291 290 289 287 285 284 282 281 279
176 176 175 172 170 172 173 174 179 180 176 173 174 177 180 183 185 185 184 182 181 180 178 178 179 181 185 191 200 214 219 193 182 204 221 229 245 274 287 282 274 268 268 269 269 269 270 271 272 273 274 275 276 275 275 274 275 277 278 279 283 286 285 280 278 278 279 282 288 294 297 299 299 297 296 296 293 290 289 287 286 285 284 280 274
172 171 171 168 165 167 168 171 178 182 180 178 178 181 185 187 192 195 194 189 184 177 170 169 174 179 185 194 207 217 217 205 202 210 218 228 243 260 278 287 285 277 273 272 271 271 271 271 273 274 276 277 277 276 275 275 276 279 281 284 286 286 283 283 283 284 286 288 290 291 292 296 299 296 292 291 290 288 287 286 287 287 285 278 268
166 165 167 167 164 163 165 169 175 181 184 183 182 187 192 195 202 208 211 212 210 199 188 191 199 198 205 225 237 234 228 227 230 230 229 236 248 258 269 279 283 281 277 276 275 274 273 272 272 272 273 274 275 276 277 278 280 282 283 284 285 284 283 282 283 285 289 292 294 294 294 295 295 293 292 294 293 292 293 294 293 291 288 281 269